Theta_e
361 361 357 354 351 349 349 347 346 346 344 344 344 344 342 340 339 339 345 354 355 358 357 356 351 348 345 340 337 336 334 332 330 329 328 329 329 329 328 328 326 327 328
364 358 358 354 353 351 349 347 347 345 343 342 341 344 343 341 341 342 343 352 353 355 356 356 351 349 345 341 338 336 334 332 330 329 329 329 328 327 327 326 326 327 327
365 361 358 355 352 353 354 353 349 349 345 343 344 341 342 349 344 346 347 345 354 354 354 353 352 348 346 342 339 336 333 331 330 329 329 328 327 326 325 325 326 326 327
359 360 357 354 355 356 354 349 348 346 345 344 344 343 342 344 345 349 347 348 353 355 353 352 352 350 346 343 340 337 334 332 331 329 326 326 325 324 323 324 325 325 324
352 355 350 352 357 351 352 350 351 349 344 341 341 345 346 344 345 343 348 352 352 352 357 350 350 349 348 344 342 339 335 332 329 324 324 324 323 322 323 323 324 325 323
350 356 349 355 355 348 350 347 353 349 347 346 342 342 346 346 345 344 351 353 351 353 354 352 348 346 347 345 342 338 334 329 324 323 322 321 321 321 322 323 323 322 323
350 359 346 351 355 348 350 354 348 347 346 346 346 340 343 343 352 349 353 349 349 351 352 350 348 343 342 342 338 333 330 324 321 321 320 320 320 320 321 322 321 321 322
352 351 354 347 350 338 347 352 352 340 341 344 339 334 336 339 346 349 349 349 352 351 347 346 341 335 332 328 327 326 323 320 319 319 319 318 319 319 320 320 320 320 320
350 356 354 352 349 349 335 345 345 348 339 345 348 338 329 330 333 341 344 344 348 345 341 342 333 331 330 326 325 323 319 316 316 317 317 317 317 318 318 319 319 319 319
351 354 355 351 355 345 349 345 344 344 344 338 343 346 346 337 331 325 334 338 339 339 339 337 334 331 330 324 323 321 316 314 315 315 315 316 316 317 317 317 318 318 318
349 344 347 349 350 345 350 348 348 347 343 345 345 346 345 343 336 333 326 327 332 333 333 332 330 328 328 326 324 317 314 312 312 312 313 314 315 316 317 316 316 317 318
341 347 346 348 348 352 344 347 348 347 345 347 347 346 337 337 334 338 328 327 322 323 325 325 325 323 321 318 316 315 312 310 310 310 311 312 314 315 314 314 314 315 316
330 345 326 329 328 345 346 347 344 345 344 344 345 344 345 337 341 342 329 319 319 318 320 320 320 317 313 314 313 313 312 310 309 308 309 310 311 310 310 311 312 313 314
342 349 346 343 342 341 343 345 338 341 343 340 342 344 342 341 337 332 332 317 308 311 314 309 310 311 311 313 313 312 312 311 310 308 308 308 307 307 308 309 310 311 312
336 337 339 339 338 338 337 336 335 336 339 340 339 333 330 325 324 324 321 325 312 304 305 308 307 311 311 311 312 312 314 311 308 307 307 305 305 306 306 307 308 309 309
336 337 336 335 332 329 326 326 327 325 325 327 325 323 319 318 317 320 319 319 319 312 307 309 309 308 309 309 309 311 314 310 309 307 306 305 305 306 306 306 307 308 308
330 328 327 324 322 321 320 319 318 317 316 315 315 313 310 312 309 310 311 315 311 311 306 306 309 308 309 310 309 312 316 314 312 308 307 306 305 304 305 306 306 306 306
325 322 321 319 317 315 314 313 311 310 309 307 306 306 306 307 306 307 307 310 309 308 304 301 304 306 308 310 313 315 314 313 311 309 309 307 304 304 304 305 305 305 304
316 313 313 311 310 310 310 309 308 306 305 305 304 304 304 304 304 304 305 305 307 305 305 302 303 307 309 311 314 315 314 315 313 311 310 307 305 304 304 304 304 304 303
309 307 307 307 308 307 307 307 306 305 305 304 304 304 303 303 304 304 306 306 306 307 307 305 305 308 308 312 312 311 311 313 312 311 311 308 308 306 304 304 304 304 302
306 305 306 306 306 306 306 306 306 306 305 305 305 305 305 306 306 306 306 305 306 307 305 305 306 307 309 310 309 311 309 311 311 310 307 306 309 305 303 303 303 303 302
303 304 303 303 302 302 302 304 305 304 305 304 303 305 303 304 305 305 306 307 307 304 303 303 308 307 308 308 310 309 309 308 303 310 306 304 307 300 301 302 302 301 301
302 301 301 301 301 301 300 301 302 302 302 302 302 302 302 303 304 304 305 306 308 308 310 312 308 308 306 309 309 309 308 307 305 307 305 301 302 300 301 301 301 301 300
299 299 299 299 300 300 299 299 301 302 302 302 303 303 302 303 304 304 307 309 308 307 310 310 309 308 308 309 310 310 312 312 307 306 306 298 302 298 300 300 301 301 300
298 298 299 299 299 299 298 298 302 303 302 304 305 307 307 305 298 298 307 306 306 306 302 302 301 300 301 301 303 308 305 305 301 301 301 300 299 299 297 297 299 300 300
299 299 300 302 301 300 296 297 301 303 304 305 305 304 297 299 296 297 311 309 306 306 307 305 305 304 306 304 303 305 302 299 300 299 299 298 296 297 295 298 297 298 299
Wind_Speed
4 3 5 7 8 8 8 9 10 10 11 13 13 14 14 14 13 8 5 18 17 18 19 20 20 19 18 17 16 15 14 12 10 6 4 6 7 10 13 16 18 17 17
4 5 4 8 8 8 9 8 8 9 11 12 13 14 14 14 13 13 10 11 19 20 19 19 20 20 19 18 16 15 13 11 10 7 6 7 9 12 15 17 18 18 16
8 8 5 5 7 7 10 10 7 9 10 12 13 13 12 12 13 13 11 10 12 17 20 20 19 20 19 18 17 15 13 11 9 7 6 7 11 13 15 17 17 17 15
12 8 5 6 10 3 6 9 7 8 8 11 10 11 11 12 14 13 13 11 9 12 13 19 20 19 20 18 16 14 12 11 9 6 5 8 11 14 15 16 16 16 13
10 8 6 8 7 7 8 9 8 10 10 9 11 11 12 12 13 14 16 12 7 9 9 18 18 19 18 18 17 16 13 11 6 3 6 8 11 13 15 14 16 13 15
11 9 9 8 9 8 8 10 9 11 12 10 8 10 17 11 13 12 4 6 2 15 11 11 12 13 16 17 16 14 12 7 3 4 7 9 11 13 13 14 13 14 15
8 8 9 10 13 12 11 11 10 10 12 11 8 10 10 9 15 7 4 6 12 6 4 7 7 5 9 12 11 12 9 4 2 6 6 9 10 12 13 14 13 15 16
10 9 9 10 8 10 9 11 11 11 12 10 11 8 10 7 10 11 4 4 2 5 8 7 10 9 9 7 10 12 8 3 2 5 7 7 10 13 13 15 15 15 18
10 10 10 8 9 7 10 9 10 11 11 11 13 8 4 8 5 3 9 9 10 7 6 8 9 10 9 8 12 10 8 3 2 5 5 7 9 11 13 15 16 16 17
11 11 10 10 6 8 9 10 9 9 10 12 11 11 15 10 5 2 5 8 7 8 8 8 9 10 9 8 9 13 9 3 3 4 5 7 8 11 14 15 17 17 17
7 11 10 8 7 8 6 8 10 10 10 10 10 10 13 12 14 5 7 8 9 7 7 5 8 7 8 5 7 10 10 4 1 5 6 7 9 12 14 16 17 17 17
9 12 12 6 3 7 11 9 11 12 11 11 10 11 12 9 11 11 4 10 9 7 4 6 6 6 6 4 8 12 8 5 2 4 6 8 11 12 16 16 16 16 17
7 11 9 7 13 13 10 11 11 12 13 11 13 10 10 13 11 11 8 4 6 4 5 5 2 4 4 4 5 6 7 6 4 3 4 6 10 11 12 14 15 16 18
11 12 9 6 9 11 12 10 11 9 11 11 15 12 9 9 9 5 13 8 5 1 5 3 2 1 3 2 6 4 2 9 7 1 3 5 5 8 11 15 15 17 18
9 12 12 11 12 13 14 13 9 12 12 11 9 7 7 5 3 2 6 5 7 7 3 7 4 5 3 3 4 3 4 10 6 3 1 1 4 8 11 14 16 17 19
12 13 13 14 13 12 12 13 11 9 10 7 5 4 4 3 3 2 2 2 2 4 4 3 2 5 5 3 6 3 4 8 8 6 5 2 4 9 9 12 16 18 20
10 11 10 11 10 11 11 9 7 7 5 5 6 7 9 9 7 7 7 5 5 4 5 4 3 3 2 1 5 6 7 8 9 11 9 5 1 5 8 13 15 17 19
10 10 10 9 9 9 9 8 7 8 8 9 9 10 9 7 9 9 7 11 6 8 4 10 3 3 2 4 5 4 3 2 9 14 11 6 6 6 8 12 16 18 19
10 10 9 9 8 7 7 7 8 9 9 9 9 11 10 9 10 7 7 6 6 6 5 7 2 3 5 4 7 4 6 6 4 16 12 11 9 9 11 15 16 18 19
9 9 8 8 7 7 7 7 9 10 10 10 10 11 10 9 8 7 8 5 9 3 6 5 3 3 4 6 3 4 7 7 4 5 10 15 8 12 14 17 18 20 19
9 8 9 9 10 8 6 7 9 10 11 12 12 11 12 15 14 11 5 5 9 3 4 3 4 6 3 3 1 1 2 7 6 6 9 4 3 8 9 13 15 20 20
10 10 11 11 11 9 15 11 9 8 8 12 12 13 10 14 11 14 16 12 7 2 3 6 3 8 8 7 6 5 4 6 6 7 7 4 7 6 5 7 16 19 20
9 10 11 11 11 10 16 13 14 8 9 8 9 8 7 7 8 6 7 3 8 14 11 11 11 8 6 6 5 4 2 2 6 6 3 5 4 5 5 7 16 19 19
9 9 9 9 8 8 13 10 9 6 6 7 5 6 7 6 6 3 2 9 11 10 9 9 10 10 10 9 6 7 7 7 9 8 6 3 4 6 6 6 16 17 18
9 8 7 8 8 8 11 9 4 3 2 9 9 10 8 7 10 8 6 9 9 9 9 13 11 8 9 12 15 9 9 4 6 7 7 3 3 3 5 7 7 17 17
8 5 7 5 7 6 9 10 8 6 8 7 9 10 14 9 10 14 6 8 8 7 9 9 6 4 5 13 18 13 8 6 5 3 7 3 3 1 2 5 8 8 8
Wind_Direction
258 255 246 258 272 278 250 239 248 253 240 237 254 248 248 257 261 261 252 160 165 169 182 184 180 180 181 179 178 177 178 179 186 203 237 285 292 303 308 313 314 306 307
234 255 251 241 249 269 276 304 276 246 251 253 250 236 247 252 248 251 252 172 170 171 179 186 185 184 186 184 184 187 185 189 200 214 248 279 299 308 312 313 308 307 307
246 247 257 283 264 258 270 279 308 292 267 273 264 255 233 236 252 255 244 256 168 174 172 183 189 190 191 188 191 191 193 199 211 219 262 288 304 309 311 309 308 309 311
257 216 226 240 245 214 266 250 258 277 300 274 257 266 251 242 235 231 245 240 172 179 182 184 190 190 193 194 191 195 203 216 218 229 271 297 310 311 310 306 305 308 316
232 231 239 278 290 250 271 265 269 253 258 266 276 257 235 252 228 229 229 217 166 171 187 185 191 194 193 195 193 198 197 205 206 258 292 308 305 306 309 312 306 315 316
214 214 236 237 266 279 270 253 244 258 254 269 280 282 298 245 228 239 209 181 151 215 170 182 189 200 197 196 194 189 191 171 192 278 300 304 306 312 314 306 324 319 315
245 224 243 213 228 243 227 249 245 252 264 255 278 281 275 295 308 226 111 183 200 174 199 189 182 200 172 174 159 155 153 171 249 293 301 316 316 317 312 314 317 317 316
231 240 239 266 284 284 284 254 248 257 261 249 246 260 270 246 224 248 254 178 202 171 189 178 140 145 135 130 135 142 147 167 256 288 305 319 322 316 320 321 316 321 314
229 226 233 250 267 279 279 286 269 250 264 261 238 232 259 244 226 217 200 225 178 181 142 174 127 137 138 140 153 147 137 127 269 282 307 323 318 322 327 327 326 317 315
198 221 225 233 255 275 304 289 275 285 274 264 261 242 247 245 279 200 200 203 186 181 153 159 144 158 154 163 118 120 121 101 277 306 333 314 315 322 323 322 321 321 319
223 229 229 238 244 263 281 285 287 271 271 261 257 257 252 254 243 278 183 181 205 163 173 140 152 163 165 173 155 119 113 123 326 336 304 317 316 319 316 326 326 322 319
200 222 228 295 285 295 280 285 285 277 273 263 262 257 246 244 231 228 234 185 176 162 179 186 164 130 120 96 100 123 127 125 91 308 317 317 326 327 331 326 323 325 325
241 59 70 44 235 270 283 283 286 283 279 274 266 261 260 252 253 242 210 168 164 157 161 161 73 98 119 85 120 135 161 151 188 249 330 321 351 344 332 334 329 328 329
1 356 2 337 338 326 315 311 294 288 274 280 280 270 271 261 248 280 228 137 89 123 164 127 72 179 125 137 143 172 188 177 207 180 322 6 8 344 342 340 338 336 331
346 351 334 342 341 342 342 326 308 313 304 306 304 320 302 313 354 330 130 204 164 147 174 172 175 178 170 178 156 260 172 170 169 153 22 47 349 333 331 340 342 339 338
356 351 355 7 1 347 350 351 338 339 339 348 340 327 9 348 23 56 108 168 28 134 139 118 144 142 200 188 144 242 215 173 164 175 183 233 321 335 342 345 347 346 342
22 15 3 8 2 353 355 351 352 343 9 28 41 51 49 38 33 35 26 49 74 60 113 93 71 107 68 272 154 223 192 204 166 188 190 217 322 26 7 351 352 352 348
15 13 13 10 10 7 10 18 36 47 55 58 52 60 59 60 50 50 41 49 35 58 78 104 120 112 171 258 234 220 232 180 154 189 186 177 126 56 25 5 1 358 350
27 28 21 20 19 22 38 53 71 73 69 66 65 66 61 59 66 53 47 57 26 88 90 110 114 160 196 195 188 207 204 200 233 171 168 144 111 72 34 14 3 3 352
35 36 33 31 36 43 55 65 77 79 79 76 72 69 60 54 58 69 67 22 80 79 80 69 72 171 180 207 214 187 196 220 109 39 77 140 139 77 30 17 5 3 353
44 43 46 42 40 39 55 75 73 74 76 74 73 74 81 74 63 60 66 27 53 62 106 160 198 217 107 76 85 160 57 108 95 33 85 132 63 38 18 14 7 4 359
54 52 52 49 45 44 39 49 68 74 68 77 76 69 58 70 63 59 67 72 95 84 164 225 102 66 37 18 11 360 8 102 139 63 90 68 49 43 7 21 16 9 8
52 48 48 48 52 50 38 42 55 52 61 70 73 77 68 72 86 72 73 54 61 44 57 78 72 58 58 34 1 354 14 11 74 52 89 68 43 63 13 30 20 14 13
55 52 48 45 53 41 33 29 50 65 70 67 78 119 112 106 48 332 298 81 64 46 24 75 72 63 50 14 356 283 271 127 96 69 37 71 37 55 35 16 23 11 14
58 53 52 55 52 42 21 0 35 136 151 60 49 44 49 60 4 331 182 118 115 111 86 91 102 97 54 36 20 7 13 149 117 80 39 352 35 117 46 27 15 12 17
70 65 55 55 98 80 26 3 22 65 62 84 73 49 33 25 7 23 104 131 128 158 133 131 131 119 117 69 48 39 24 29 24 53 27 9 4 344 113 26 23 15 10